Home   Weather   Wipperfürth   Past weeks

Flag for Germany Past Weather in Wipperfürth, North Rhine-Westphalia, Germany — Yesterday and Last 2 Weeks

Now
28 °F

Overcast.


Feels Like: 28 °F
Forecast: 18 / 29 °F
Wind: No wind

Location: Koeln / Bonn

Current Time: Jan 24, 2017 at 10:13:02 am

Latest Report: Jan 24, 2017 at 9:20 am


Visibility: N/A

Pressure: 30.36 "Hg

Humidity: 93%

Dew Point: 27 °F

Location of WipperfürthLocation

Past Weather in Wipperfürth — Graph

°F

Wipperfürth Temperature Yesterday

Maximum temperature yesterday: 30 °F (at 4:20 pm)
Minimum temperature yesterday: 14 °F (at 4:50 am)
Average temperature yesterday: 24 °F

High & Low Weather Summary for the Past Weeks

 TemperatureHumidityPressure
High46 °F (Jan 11, 4:20 pm)100% (Jan 9, 8:20 am)30.69 "Hg (Jan 9, 8:20 am)
Low12 °F (Jan 18, 7:20 am)42% (Jan 20, 1:20 pm)28.97 "Hg (Jan 13, 1:20 am)
Average31 °F85%30.18 "Hg
* Reported Jan 9 8:20 am — Jan 24 8:50 am, Wipperfürth, Weather by CustomWeather, © 2017

Note: Actual official high and low records may vary slightly from our data, if they occured in-between our weather recording intervals... More about our weather records

Advertising

Wipperfürth Weather History for the Previous 24 Hours

Scroll right to see more
 ConditionsComfort  
Time TempWeatherWind HumidityBarometerVisibility
8:50 am
Tue, Jan 24
28 °FOvercast.2 mph93%30.36 "HgN/A
8:20 am28 °FOvercast.1 mph93%30.33 "HgN/A
7:50 am28 °FOvercast.2 mph93%30.33 "HgN/A
7:20 am28 °FLight snow. Overcast.1 mph86%30.33 "Hg6 mi
6:50 am28 °FLight snow. Overcast.2 mph86%30.33 "Hg6 mi
6:20 am28 °FLight snow. Overcast.3 mph86%30.30 "Hg5 mi
5:50 am28 °FLight snow. Overcast.3 mph86%30.30 "Hg4 mi
5:20 am28 °FLight snow. Overcast.3 mph86%30.30 "Hg4 mi
4:50 am28 °FLight snow. Overcast.5 mph86%30.30 "Hg5 mi
4:20 am28 °FLight snow. Overcast.3 mph86%30.30 "Hg5 mi
3:50 am28 °FLight snow. Passing clouds.3 mph86%30.30 "Hg4 mi
3:20 am28 °FLight snow. Passing clouds.3 mph86%30.30 "Hg4 mi
2:50 am28 °FLight snow. Passing clouds.2 mph86%30.33 "Hg4 mi
2:20 am28 °FLight snow. Passing clouds.2 mph86%30.33 "Hg4 mi
1:50 am28 °FLight snow. Passing clouds.1 mph86%30.33 "Hg4 mi
1:20 am28 °FLight snow. Low clouds.1 mph86%30.33 "Hg6 mi
12:50 am28 °FLight snow. Passing clouds.2 mph86%30.33 "HgN/A
12:20 am28 °FLight snow. Passing clouds.1 mph86%30.33 "HgN/A
11:50 pm
Mon, Jan 23
28 °FPassing clouds.2 mph86%30.33 "HgN/A
11:20 pm28 °FLow clouds.5 mph86%30.33 "Hg6 mi
10:50 pm28 °FLow clouds.2 mph86%30.33 "Hg6 mi
10:20 pm28 °FLow clouds.3 mph86%30.33 "HgN/A
9:50 pm28 °FLow clouds.3 mph86%30.33 "HgN/A
9:20 pm28 °FLow clouds.5 mph86%30.33 "Hg6 mi
8:50 pm28 °FLow clouds.3 mph86%30.33 "Hg5 mi
8:20 pm28 °FLow clouds.5 mph93%30.33 "Hg4 mi
7:50 pm28 °FLow clouds.3 mph93%30.33 "Hg4 mi
7:20 pm28 °FLow clouds.3 mph93%30.33 "Hg4 mi
6:50 pm28 °FIce fog.3 mph93%30.33 "Hg3 mi
6:20 pm28 °FIce fog.3 mph93%30.33 "Hg3 mi
5:50 pm28 °FIce fog.3 mph93%30.33 "Hg3 mi
5:20 pm28 °FIce fog.5 mph93%30.33 "Hg3 mi
4:50 pm30 °FLow clouds.5 mph86%30.33 "Hg4 mi
4:20 pm30 °FLow clouds.3 mph86%30.33 "Hg4 mi
3:50 pm28 °FLow clouds.7 mph93%30.33 "Hg4 mi
3:20 pm28 °FLow clouds.5 mph93%30.33 "Hg4 mi
2:50 pm28 °FLow clouds.3 mph93%30.33 "Hg4 mi
2:20 pm28 °FLow clouds.5 mph93%30.33 "Hg4 mi
1:50 pm28 °FIce fog.3 mph93%30.33 "Hg3 mi
1:20 pm27 °FIce fog.2 mph100%30.33 "Hg1 mi
12:50 pm27 °FIce fog.2 mph93%30.33 "Hg1 mi
12:20 pm27 °FIce fog.2 mph93%30.33 "Hg1 mi
11:50 am25 °FSnow flurries. Ice fog.5 mph100%30.36 "Hg1 mi
11:20 am25 °FSnow flurries. Ice fog.3 mph93%30.36 "Hg1 mi
10:50 am25 °FIce fog.2 mph93%30.33 "Hg1 mi
10:20 am23 °FIce fog.2 mph93%30.36 "Hg1 mi
Weather by CustomWeather, © 2017

See weather overviewHow to use our weather pages